TimeMDT,TemperatureF,Dew PointF,Humidity,Sea Level PressureIn,VisibilityMPH,Wind Direction,Wind SpeedMPH,Gust SpeedMPH,PrecipitationIn,Events,Conditions,WindDirDegrees,DateUTC
12:03 AM,33.8,32.0,93,30.29,10.0,NE,8.1,-,N/A,,Overcast,40,2013-10-24 06:03:00
12:13 AM,32.0,32.0,100,30.29,10.0,NE,9.2,-,N/A,,Overcast,40,2013-10-24 06:13:00
12:33 AM,32.0,32.0,100,30.28,10.0,NE,5.8,-,N/A,,Overcast,40,2013-10-24 06:33:00
12:38 AM,32.0,32.0,100,30.28,10.0,NE,5.8,-,N/A,,Overcast,50,2013-10-24 06:38:00
12:43 AM,32.0,32.0,100,30.28,10.0,NE,5.8,-,N/A,,Overcast,40,2013-10-24 06:43:00
12:58 AM,33.4,31.6,93,30.36,10.0,ENE,5.8,-,N/A,,Overcast,60,2013-10-24 06:58:00
1:58 AM,32.9,31.1,93,30.36,10.0,East,4.6,-,N/A,,Overcast,90,2013-10-24 07:58:00
2:58 AM,32.5,31.1,94,30.38,7.0,SE,4.6,-,N/A,,Overcast,130,2013-10-24 08:58:00
3:13 AM,32.0,32.0,100,30.29,10.0,ESE,4.6,-,N/A,,Overcast,110,2013-10-24 09:13:00
3:38 AM,32.0,30.2,93,30.29,10.0,East,3.5,-,N/A,,Overcast,100,2013-10-24 09:38:00
3:58 AM,32.2,30.0,92,30.36,10.0,SE,3.5,-,N/A,,Overcast,130,2013-10-24 09:58:00
4:18 AM,32.0,30.2,93,30.29,10.0,East,3.5,-,N/A,,Overcast,90,2013-10-24 10:18:00
4:33 AM,32.0,30.2,93,30.29,10.0,Calm,Calm,-,N/A,,Overcast,0,2013-10-24 10:33:00
4:58 AM,32.7,30.6,92,30.38,10.0,SSE,1.2,-,N/A,,Overcast,160,2013-10-24 10:58:00
5:53 AM,32.0,32.0,100,30.29,3.0,SSW,5.8,-,N/A,,Overcast,200,2013-10-24 11:53:00
5:58 AM,33.1,31.8,95,30.37,2.5,SSW,5.8,-,N/A,,Overcast,200,2013-10-24 11:58:00
6:23 AM,32.0,32.0,100,30.29,3.0,SSW,6.9,-,N/A,,Overcast,210,2013-10-24 12:23:00
6:58 AM,33.1,32.2,96,30.37,2.5,SSW,6.9,-,N/A,,Overcast,200,2013-10-24 12:58:00
7:08 AM,32.0,32.0,100,30.29,3.0,South,6.9,-,N/A,,Overcast,190,2013-10-24 13:08:00
7:38 AM,32.0,32.0,100,30.29,6.0,SSW,6.9,-,N/A,,Overcast,200,2013-10-24 13:38:00
7:53 AM,32.0,32.0,100,30.29,8.0,SSW,5.8,-,N/A,,Overcast,200,2013-10-24 13:53:00
7:58 AM,33.4,32.4,96,30.37,8.0,South,5.8,-,N/A,,Overcast,190,2013-10-24 13:58:00
8:08 AM,32.0,32.0,100,30.29,10.0,SW,5.8,-,N/A,,Overcast,220,2013-10-24 14:08:00
8:58 AM,35.1,33.3,93,30.38,10.0,SSW,8.1,-,N/A,,Overcast,210,2013-10-24 14:58:00
9:48 AM,37.4,33.8,87,30.31,10.0,SSW,5.8,-,N/A,,Overcast,200,2013-10-24 15:48:00
9:58 AM,38.1,33.8,84,30.38,10.0,South,8.1,-,N/A,,Overcast,190,2013-10-24 15:58:00
10:03 AM,39.2,33.8,81,30.31,10.0,South,6.9,-,N/A,,Overcast,180,2013-10-24 16:03:00
10:38 AM,41.0,35.6,81,30.31,10.0,South,5.8,-,N/A,,Mostly Cloudy,180,2013-10-24 16:38:00
10:58 AM,41.5,34.7,77,30.38,10.0,South,6.9,-,0.00,,Mostly Cloudy,180,2013-10-24 16:58:00
11:58 AM,44.6,35.1,69,30.38,10.0,South,4.6,-,N/A,,Scattered Clouds,170,2013-10-24 17:58:00
12:58 PM,47.7,35.1,62,30.35,10.0,Variable,2.3,-,N/A,,Scattered Clouds,0,2013-10-24 18:58:00
1:58 PM,46.9,35.4,64,30.33,10.0,ESE,5.8,-,N/A,,Overcast,120,2013-10-24 19:58:00
2:58 PM,48.0,36.3,64,30.30,10.0,SSE,5.8,-,N/A,,Clear,150,2013-10-24 20:58:00
3:58 PM,48.9,36.1,61,30.30,10.0,SSE,3.5,-,N/A,,Clear,150,2013-10-24 21:58:00
4:58 PM,48.4,36.3,63,30.30,10.0,South,6.9,-,N/A,,Clear,170,2013-10-24 22:58:00
5:58 PM,44.2,36.1,73,30.30,10.0,South,6.9,-,N/A,,Clear,180,2013-10-24 23:58:00
6:58 PM,41.9,35.1,77,30.31,10.0,South,5.8,-,N/A,,Clear,180,2013-10-25 00:58:00
7:58 PM,39.6,34.5,82,30.32,10.0,South,6.9,-,N/A,,Clear,180,2013-10-25 01:58:00
8:58 PM,39.2,34.2,82,30.30,10.0,South,8.1,-,N/A,,Clear,180,2013-10-25 02:58:00
9:58 PM,39.0,34.3,83,30.29,10.0,South,5.8,-,N/A,,Clear,180,2013-10-25 03:58:00
10:58 PM,40.3,34.7,80,30.26,10.0,South,6.9,-,N/A,,Clear,170,2013-10-25 04:58:00
11:58 PM,40.8,34.0,77,30.25,10.0,South,4.6,-,N/A,,Clear,180,2013-10-25 05:58:00